Wind_Speed
8 7 7 7 7 8 8 8 9 10 11 11 12 12 11 10 10 9 9 9 9 8 8 7 7 7 6 6 6 5 5 5 5 6 6 6 6 6 6 6 6 7 6
8 8 7 7 8 8 8 8 9 10 10 11 11 11 11 10 10 9 9 9 8 8 8 7 7 6 6 6 5 5 4 4 4 4 4 4 5 5 5 5 5 5 5
9 8 8 8 8 8 8 8 9 9 10 10 11 11 11 10 10 9 9 9 9 8 8 8 7 6 6 5 5 4 4 3 3 3 3 3 3 3 3 4 4 4 4
9 9 9 9 8 8 8 9 9 9 10 11 11 11 11 11 10 10 9 9 9 9 8 8 7 7 6 6 5 5 4 3 3 2 2 1 1 2 2 2 2 3 3
10 10 9 9 9 9 9 9 10 10 11 11 12 12 12 11 11 11 10 10 10 10 9 9 8 8 8 7 7 6 6 5 4 3 2 2 1 0 0 1 1 2 2
11 10 10 9 9 10 10 10 11 12 12 12 13 13 13 13 12 12 12 11 11 11 10 10 10 10 9 9 9 8 7 7 6 5 4 4 3 3 2 1 0 0 1
12 12 11 11 11 11 11 12 13 13 14 14 14 14 14 14 14 14 14 14 13 12 12 12 12 12 11 11 11 11 10 9 9 8 7 6 5 4 4 3 2 2 1
12 12 12 12 13 14 15 15 16 16 16 17 17 17 17 17 17 16 16 16 15 15 14 14 14 14 14 14 13 13 13 12 11 10 9 9 8 7 6 5 5 4 3
14 14 14 15 16 16 17 18 18 19 19 20 20 20 20 21 20 20 19 19 18 18 17 16 16 16 16 16 16 16 15 15 14 14 12 11 10 9 9 8 7 7 6
16 17 17 17 18 19 19 20 20 21 21 22 23 23 23 23 23 23 23 22 22 21 20 19 19 19 18 18 18 18 18 17 17 16 15 14 13 12 12 11 10 10 9
18 18 18 19 20 21 21 21 22 22 23 24 25 26 26 26 26 26 26 26 25 24 23 22 22 21 20 20 20 20 20 20 19 18 17 17 16 14 14 13 13 12 12
20 20 20 20 21 22 23 23 24 25 26 27 28 28 29 30 30 30 29 28 28 27 27 26 25 23 22 22 23 22 22 22 21 19 18 18 18 16 15 15 15 15 15
22 22 22 22 23 24 25 25 26 27 28 29 30 30 31 32 32 33 32 31 30 30 29 28 28 26 24 23 24 24 23 23 22 22 19 18 19 18 17 17 16 16 16
24 25 25 25 26 27 28 29 29 30 30 31 32 32 32 33 34 34 34 34 32 31 30 31 29 28 26 25 26 25 25 24 24 23 21 20 20 19 18 18 17 17 17
26 28 28 28 29 30 31 32 32 32 33 34 34 33 33 35 36 36 36 36 35 34 33 32 31 30 29 27 27 26 26 27 25 24 22 20 19 20 19 19 18 17 18
29 30 30 31 32 33 34 34 36 36 35 36 36 35 35 35 35 37 38 37 36 36 35 34 33 32 30 29 27 27 27 27 26 24 22 21 20 20 20 20 19 18 18
31 32 33 33 34 35 36 37 38 37 37 37 37 36 36 36 37 37 37 37 37 37 37 35 33 32 31 29 28 27 27 27 25 24 23 21 21 21 20 20 19 19 18
32 33 34 34 35 36 37 39 39 39 39 39 39 38 38 38 37 38 36 36 37 35 34 34 33 33 31 30 29 28 27 26 25 25 24 23 22 21 21 20 20 19 19
32 32 34 35 36 38 40 40 41 41 40 40 40 40 39 39 39 38 36 36 35 34 34 33 33 32 32 31 29 28 28 27 25 26 25 23 23 23 22 21 20 20 19
30 32 34 36 38 40 40 40 40 40 40 41 40 40 40 39 38 38 36 35 32 32 31 31 31 30 31 30 30 29 29 28 27 26 26 25 24 24 23 21 20 20 19
29 31 34 36 38 39 39 40 40 40 40 40 40 40 39 38 37 36 35 33 31 30 28 29 31 31 30 31 31 30 29 28 28 27 27 26 26 26 24 23 22 21 20
30 32 34 35 36 38 39 40 40 40 40 39 39 38 38 37 37 35 34 33 32 30 29 30 31 32 32 32 32 31 30 28 29 29 28 29 28 27 26 25 23 22 21
29 31 33 35 36 38 39 39 39 39 39 40 39 38 38 38 37 36 35 34 33 31 30 31 31 32 33 32 32 32 31 29 30 30 30 30 29 29 28 27 25 24 23
28 30 32 34 35 36 37 38 38 39 40 40 40 40 39 39 38 38 37 35 34 32 32 31 31 31 33 33 33 33 32 31 31 31 32 32 32 31 30 29 28 25 24
29 30 32 33 34 35 37 38 40 41 42 42 42 41 41 41 40 40 39 38 37 36 35 33 33 33 34 34 34 34 34 34 33 33 33 34 34 33 32 31 30 28 26
29 31 32 33 35 36 38 40 41 42 43 43 43 43 43 43 42 41 41 40 40 39 38 36 35 34 34 35 34 35 36 36 36 35 35 35 35 35 34 34 32 31 29
Wind_Direction
298 297 302 309 313 319 327 332 336 339 340 340 340 342 344 346 349 353 356 358 360 1 4 7 8 7 13 17 21 27 35 41 46 50 54 60 66 70 72 70 71 74 77
295 295 297 303 306 310 318 324 328 330 333 333 334 335 336 339 341 344 346 347 350 351 352 354 355 355 356 358 3 8 13 22 32 42 50 53 59 65 71 72 70 73 77
292 293 294 298 302 306 313 319 323 324 326 328 328 328 330 332 335 336 336 336 337 340 340 339 340 339 339 337 337 342 347 352 360 18 36 44 52 59 66 72 74 73 75
292 292 293 295 300 305 311 316 320 321 322 323 322 321 322 324 328 329 329 328 327 327 327 326 324 321 319 317 313 312 315 319 320 329 342 4 35 54 64 68 70 72 74
293 293 294 295 299 305 311 315 316 317 318 319 318 318 317 318 319 320 320 319 318 317 315 313 312 307 303 301 298 294 292 291 289 290 288 283 282 289 45 67 65 63 64
296 295 296 298 302 307 312 316 316 315 316 316 316 315 314 315 315 315 314 312 310 309 305 303 301 296 291 288 286 283 281 278 276 274 272 267 264 259 254 255 257 21 25
297 298 299 301 305 308 311 313 312 312 313 312 312 311 310 309 310 311 310 309 307 304 300 297 293 289 285 281 279 277 274 271 269 266 264 263 261 258 254 254 254 260 280
297 299 301 304 305 306 308 309 309 309 309 309 309 308 307 305 304 304 304 304 302 299 296 293 289 286 282 278 275 273 271 268 265 263 259 258 256 254 252 250 251 252 256
298 298 301 305 306 306 307 308 307 307 307 306 306 306 305 304 302 301 300 299 297 294 291 288 285 282 278 276 273 270 269 266 263 261 259 257 256 253 251 250 248 248 251
302 302 303 305 306 306 307 307 307 306 306 305 305 304 303 301 300 299 297 296 293 291 288 285 281 279 275 272 270 269 267 265 262 260 258 256 256 253 249 248 247 247 248
305 305 304 304 305 305 306 306 305 306 306 304 303 302 300 299 299 296 294 292 290 287 286 285 280 277 271 268 267 265 265 264 262 261 256 252 253 254 249 247 248 248 247
304 304 305 305 305 306 306 307 306 306 306 304 302 299 298 297 297 295 292 290 289 286 283 281 279 277 271 266 264 263 262 262 262 260 256 251 251 251 248 246 247 249 249
300 302 303 304 305 306 306 307 306 306 307 306 303 300 297 296 296 296 292 289 287 286 283 278 276 272 269 266 263 261 258 259 261 257 253 250 249 248 248 247 247 249 250
296 298 301 303 304 306 305 305 305 305 304 305 303 300 298 295 295 294 293 289 287 284 282 277 274 269 265 264 261 259 254 253 255 255 249 247 247 247 246 246 246 248 250
293 295 297 299 300 301 302 303 303 304 303 303 304 302 300 297 294 292 291 290 287 284 281 277 272 267 262 263 261 256 253 249 253 250 249 251 249 248 246 245 245 246 249
289 290 292 294 296 297 299 300 301 300 301 301 303 301 300 299 296 292 292 288 286 284 279 277 274 267 263 262 260 257 254 252 249 249 248 246 246 245 245 243 244 246 247
286 287 288 290 292 293 295 296 298 296 298 300 302 301 300 298 296 294 292 289 287 284 280 276 272 267 264 261 258 257 254 250 246 247 246 244 243 243 241 242 243 244 246
284 284 285 286 289 291 293 295 296 296 297 297 298 298 297 297 296 295 293 290 287 284 281 273 270 268 263 260 257 255 251 248 244 244 246 244 241 240 239 240 243 243 244
280 282 283 285 287 290 291 292 294 296 295 295 294 294 295 296 295 295 293 292 286 281 277 271 268 264 261 258 256 252 248 247 245 243 244 242 238 236 237 239 241 241 242
280 280 282 284 286 288 291 292 292 293 293 293 292 291 294 293 292 293 292 292 287 283 276 269 265 261 260 256 252 250 248 247 243 243 242 240 237 236 235 235 236 237 239
281 281 282 286 287 288 290 291 291 292 292 292 290 291 291 291 290 290 289 288 284 282 277 268 263 261 259 255 252 247 247 245 242 241 240 240 237 236 235 233 233 235 238
282 283 285 287 288 289 290 291 291 291 290 290 290 290 290 289 289 288 287 285 282 280 275 270 264 259 256 254 250 245 244 243 241 240 240 239 237 236 234 232 231 233 235
286 286 287 289 290 290 292 292 291 290 289 289 289 289 289 287 286 285 283 283 280 278 274 270 263 260 253 250 247 243 243 243 241 241 239 237 236 235 233 232 231 232 234
292 292 291 293 293 293 293 293 292 292 291 290 289 289 288 287 285 283 282 280 277 275 275 272 261 259 253 249 245 243 242 241 240 240 238 237 236 234 232 231 230 230 232
297 297 297 297 297 296 295 295 294 294 293 292 290 289 287 286 284 282 280 279 277 273 272 269 263 260 254 251 247 242 241 240 239 240 239 238 236 234 232 231 231 231 230
302 302 302 302 301 300 299 298 297 296 294 293 291 290 288 286 283 281 279 277 275 272 269 266 262 258 255 253 250 245 241 241 241 240 238 237 235 234 233 232 232 232 230
Height
5914 5913 5913 5913 5913 5912 5911 5911 5910 5910 5909 5909 5908 5907 5906 5905 5904 5903 5902 5902 5901 5900 5899 5899 5898 5898 5897 5896 5896 5895 5895 5895 5894 5894 5894 5894 5894 5894 5895 5895 5895 5896 5897
5913 5912 5912 5912 5912 5911 5911 5910 5910 5909 5909 5908 5907 5907 5906 5905 5904 5903 5902 5902 5901 5900 5900 5899 5899 5898 5898 5897 5897 5896 5896 5896 5895 5895 5895 5895 5895 5896 5896 5896 5897 5897 5898
5911 5911 5911 5911 5911 5910 5910 5909 5909 5909 5908 5908 5907 5906 5905 5904 5904 5903 5902 5902 5901 5900 5900 5899 5899 5899 5898 5898 5897 5897 5897 5896 5896 5896 5896 5896 5896 5896 5897 5897 5898 5898 5899
5910 5910 5910 5910 5910 5909 5909 5908 5908 5908 5907 5907 5906 5905 5904 5904 5903 5902 5902 5901 5900 5900 5900 5899 5899 5898 5898 5898 5897 5897 5897 5897 5897 5897 5897 5897 5897 5897 5897 5898 5898 5899 5900
5910 5909 5909 5909 5908 5908 5908 5907 5907 5906 5906 5906 5905 5904 5903 5903 5902 5901 5901 5900 5900 5899 5899 5898 5898 5898 5897 5897 5897 5897 5896 5897 5897 5897 5897 5897 5897 5897 5897 5898 5899 5899 5900
5909 5908 5908 5907 5907 5907 5906 5906 5905 5905 5905 5904 5903 5903 5902 5901 5901 5900 5899 5899 5898 5898 5897 5897 5897 5896 5896 5896 5896 5896 5896 5896 5896 5896 5896 5897 5897 5897 5897 5898 5898 5899 5900
5908 5907 5907 5906 5906 5905 5905 5904 5904 5903 5903 5902 5902 5901 5900 5900 5899 5898 5898 5897 5896 5896 5895 5895 5895 5895 5895 5894 5894 5894 5894 5895 5895 5895 5896 5896 5896 5896 5897 5897 5898 5899 5900
5906 5905 5905 5905 5904 5904 5903 5902 5902 5901 5901 5900 5900 5899 5898 5897 5897 5896 5895 5895 5894 5894 5893 5893 5892 5892 5892 5892 5892 5892 5893 5893 5893 5894 5894 5894 5895 5895 5896 5896 5897 5898 5899
5904 5903 5903 5903 5902 5901 5901 5900 5899 5899 5898 5897 5897 5896 5895 5894 5894 5893 5892 5892 5891 5891 5890 5890 5889 5889 5889 5889 5890 5890 5890 5890 5891 5891 5892 5893 5893 5894 5894 5895 5896 5897 5898
5901 5901 5901 5900 5900 5899 5898 5897 5896 5896 5895 5894 5893 5892 5891 5891 5890 5889 5889 5888 5887 5887 5886 5886 5886 5886 5886 5886 5886 5886 5887 5887 5887 5888 5890 5890 5891 5891 5892 5893 5894 5895 5896
5898 5898 5897 5897 5896 5896 5895 5894 5893 5892 5891 5890 5889 5888 5887 5886 5885 5884 5884 5883 5882 5882 5882 5882 5881 5881 5881 5881 5882 5882 5883 5883 5884 5885 5886 5887 5888 5889 5890 5891 5892 5893 5894
5894 5894 5894 5894 5893 5892 5891 5890 5889 5888 5887 5885 5884 5883 5881 5880 5879 5879 5878 5877 5876 5876 5876 5876 5876 5876 5876 5877 5877 5878 5878 5879 5880 5881 5882 5883 5884 5885 5887 5888 5889 5891 5892
5891 5890 5890 5890 5889 5888 5887 5886 5885 5884 5882 5880 5879 5877 5876 5874 5873 5872 5871 5871 5870 5870 5870 5870 5870 5870 5871 5871 5872 5872 5873 5874 5875 5876 5878 5879 5880 5882 5883 5885 5886 5888 5889
5887 5886 5885 5885 5885 5884 5882 5881 5880 5879 5877 5875 5873 5871 5870 5868 5866 5865 5864 5863 5863 5862 5862 5863 5863 5864 5864 5865 5865 5866 5868 5869 5870 5871 5871 5873 5875 5878 5879 5881 5883 5884 5886
5882 5882 5882 5881 5881 5879 5877 5876 5874 5873 5871 5869 5866 5864 5863 5862 5860 5858 5857 5855 5855 5854 5855 5855 5856 5857 5857 5858 5859 5860 5861 5862 5865 5866 5868 5869 5871 5874 5876 5877 5879 5881 5882
5878 5878 5877 5877 5876 5874 5872 5871 5869 5867 5865 5863 5861 5858 5856 5855 5853 5851 5849 5848 5847 5846 5846 5847 5847 5849 5850 5851 5853 5854 5856 5856 5858 5860 5861 5864 5866 5869 5871 5873 5875 5877 5878
5874 5873 5873 5872 5871 5869 5867 5865 5863 5861 5859 5857 5854 5852 5849 5847 5845 5843 5841 5839 5838 5838 5838 5838 5839 5840 5842 5844 5846 5848 5849 5851 5852 5854 5856 5859 5862 5864 5866 5869 5871 5873 5874
5869 5868 5867 5866 5865 5863 5861 5859 5856 5853 5852 5850 5847 5845 5843 5840 5838 5836 5833 5831 5830 5829 5830 5831 5832 5833 5835 5836 5839 5841 5843 5845 5847 5850 5852 5854 5857 5860 5862 5864 5866 5868 5870
5863 5862 5861 5860 5859 5857 5855 5852 5850 5847 5844 5842 5840 5838 5835 5833 5830 5828 5826 5823 5822 5822 5822 5822 5824 5825 5827 5829 5832 5834 5837 5839 5841 5844 5846 5849 5852 5855 5857 5859 5861 5864 5866
5858 5857 5855 5854 5852 5850 5848 5845 5842 5840 5837 5834 5832 5830 5827 5825 5823 5820 5818 5816 5814 5814 5814 5814 5816 5817 5819 5822 5824 5827 5830 5832 5835 5838 5841 5844 5847 5849 5852 5854 5857 5859 5861
5852 5851 5849 5847 5845 5843 5840 5837 5834 5832 5829 5826 5824 5822 5819 5817 5815 5813 5811 5809 5808 5807 5806 5807 5808 5809 5811 5814 5817 5820 5823 5825 5828 5831 5834 5838 5841 5844 5846 5850 5852 5854 5857
5847 5845 5843 5841 5838 5835 5832 5830 5827 5824 5821 5818 5816 5814 5812 5810 5807 5805 5804 5803 5801 5800 5799 5799 5800 5801 5804 5806 5809 5812 5815 5819 5821 5824 5828 5831 5835 5838 5841 5844 5847 5850 5852
5841 5838 5836 5834 5831 5828 5825 5821 5818 5815 5812 5810 5807 5805 5803 5801 5799 5797 5796 5795 5794 5793 5793 5792 5792 5794 5795 5798 5801 5804 5807 5811 5814 5818 5821 5824 5828 5831 5835 5838 5841 5844 5847
5834 5832 5829 5826 5823 5820 5816 5813 5809 5806 5803 5800 5798 5796 5794 5792 5790 5789 5787 5787 5786 5786 5786 5785 5785 5786 5788 5790 5793 5796 5799 5803 5807 5811 5814 5817 5821 5824 5828 5832 5835 5838 5841
5828 5825 5822 5819 5815 5812 5808 5804 5800 5797 5793 5790 5787 5785 5784 5781 5780 5779 5778 5777 5777 5777 5777 5777 5778 5779 5780 5782 5785 5788 5791 5794 5798 5802 5806 5810 5814 5817 5821 5825 5829 5832 5835
5821 5817 5814 5810 5807 5803 5799 5795 5790 5786 5782 5779 5776 5774 5772 5770 5768 5767 5767 5766 5766 5766 5767 5768 5769 5770 5772 5774 5776 5779 5783 5786 5790 5794 5797 5801 5805 5810 5813 5817 5821 5825 5829